Custer, SD

12:06 PM MDT on September 27, 2016 (GMT -0600)
Custer County

Weather History for KCUT - March, 2013

Change the Weather History Date:

Sunday, March 17, 2013

  Actual Average Record
Temperature  
Mean Temperature 30 °F 32 °F  
Max Temperature 39 °F 42 °F 69 °F (2012)
Min Temperature 21 °F 21 °F -7 °F (1965)
Degree Days  
Heating Degree Days 35 33  
Month to date heating degree days 550 596  
Since 1 July heating degree days 6092 6431  
Cooling Degree Days 0 0  
Month to date cooling degree days 0 0  
Year to date cooling degree days 0 0  
Moisture  
Dew Point 23 °F    
Average Humidity 76    
Maximum Humidity 92    
Minimum Humidity 59    
Precipitation  
Precipitation T in 0.03 in 0.53 in (2003)
Month to date precipitation 0.34 0.42  
Year to date precipitation 1.27 1.28  
Sea Level Pressure  
Sea Level Pressure 29.60 in    
Wind  
Wind Speed 9 mph (West)    
Max Wind Speed 25 mph    
Max Gust Speed 33 mph    
Visibility 4 miles    
Events Fog , Snow    
T = Trace of Precipitation, MM = Missing Value Source: NWS Daily Summary

Daily Weather History Graph

Daily Weather History Graph

Search for Another Location

Airport or City:

Trip Planner

Search our weather history database for the weather conditions in past years. The results will help you decide how hot, cold, wet, or windy it might be!

Date:

Astronomy

Mar. 17, 2013 Rise Set
Actual Time 7:02 AM MDT 7:03 PM MDT
Civil Twilight 6:33 AM MDT 7:32 PM MDT
Nautical Twilight 6:00 AM MDT 8:05 PM MDT
Astronomical Twilight 5:26 AM MDT 8:39 PM MDT
Moon 10:06 AM MDT (3/17) 12:23 AM MDT (3/17)
Length of Visible Light 12h 58m
Length of Day
12h 01m
Waxing Crescent, 32% of the Moon is Illuminated
Mar 17
Waxing Crescent
Mar 19
First Quarter
Mar 27
Full
Apr 2
Last Quarter
Apr 10
New

Hourly Weather History & Observations

Time (MDT) Temp. Windchill Dew Point Humidity Pressure Visibility Wind Dir Wind Speed Gust Speed Precip Events Conditions
12:15 AM 24.8 °F - 24.8 °F 100% 29.81 in 1.5 mi Calm Calm - N/A   Overcast
12:50 AM 24.8 °F 17.9 °F 24.8 °F 100% 29.79 in 0.8 mi South 5.8 mph - N/A   Mist
12:53 AM 25.0 °F 19.3 °F 23.0 °F 92% 29.87 in 0.5 mi Variable 4.6 mph - N/A Fog Light Freezing Fog
1:15 AM 24.8 °F 20.5 °F 23.0 °F 93% 29.78 in 0.2 mi South 3.5 mph - N/A Fog Light Freezing Fog
1:45 AM 24.8 °F - 23.0 °F 93% 29.76 in 0.5 mi Calm Calm - N/A Fog Light Freezing Fog
1:53 AM 25.0 °F - 23.0 °F 92% 29.83 in 0.8 mi Calm Calm - N/A   Mist
2:02 AM 24.8 °F - 23.0 °F 93% 29.75 in 2.0 mi Calm Calm - N/A   Overcast
2:11 AM 24.8 °F 19.1 °F 23.0 °F 93% 29.75 in 4.0 mi South 4.6 mph - N/A   Overcast
2:49 AM 24.8 °F 19.1 °F 23.0 °F 93% 29.73 in 2.0 mi SW 4.6 mph - N/A   Overcast
2:53 AM 25.0 °F 18.1 °F 23.0 °F 92% 29.80 in 1.8 mi SSW 5.8 mph - N/A   Overcast
3:06 AM 24.8 °F 19.1 °F 21.2 °F 86% 29.72 in 3.0 mi WSW 4.6 mph - N/A   Overcast
3:53 AM 24.1 °F 18.2 °F 23.0 °F 96% 29.77 in 2.0 mi West 4.6 mph - N/A   Overcast
4:00 AM 24.8 °F 20.5 °F 23.0 °F 93% 29.68 in 1.5 mi WNW 3.5 mph - N/A   Overcast
4:11 AM 24.8 °F 20.5 °F 23.0 °F 93% 29.67 in 2.5 mi West 3.5 mph - N/A   Overcast
4:24 AM 24.8 °F 20.5 °F 23.0 °F 93% 29.66 in 0.8 mi WNW 3.5 mph - N/A   Overcast
4:53 AM 24.1 °F 18.2 °F 23.0 °F 96% 29.73 in 1.2 mi SSW 4.6 mph - N/A   Overcast
5:26 AM 24.8 °F - 23.0 °F 93% 29.63 in 2.0 mi Calm Calm - N/A   Overcast
5:31 AM 24.8 °F 20.5 °F 23.0 °F 93% 29.62 in 0.8 mi SSW 3.5 mph - N/A   Overcast
5:53 AM 24.1 °F - 23.0 °F 96% 29.69 in 0.5 mi Calm Calm - N/A Fog Light Freezing Fog
6:07 AM 24.8 °F - 23.0 °F 93% 29.60 in 0.2 mi Calm Calm - N/A Fog Light Freezing Fog
6:37 AM 24.8 °F 20.5 °F 23.0 °F 93% 29.58 in 0.5 mi SSE 3.5 mph - N/A Fog Light Freezing Fog
6:53 AM 24.1 °F - 21.9 °F 91% 29.64 in 0.2 mi Calm Calm - N/A Fog Light Freezing Fog
7:25 AM 24.8 °F 20.5 °F 21.2 °F 86% 29.55 in 1.0 mi SSW 3.5 mph - N/A   Overcast
7:31 AM 24.8 °F 19.1 °F 23.0 °F 93% 29.54 in 0.2 mi SSW 4.6 mph - N/A Fog Light Freezing Fog
7:53 AM 24.1 °F 17.0 °F 21.9 °F 91% 29.62 in 0.2 mi SSW 5.8 mph - N/A Fog Light Freezing Fog
8:45 AM 26.6 °F 19.1 °F 24.8 °F 93% 29.52 in 1.0 mi WSW 6.9 mph - N/A   Mist
8:51 AM 26.6 °F 19.1 °F 24.8 °F 93% 29.52 in 3.0 mi WSW 6.9 mph - N/A   Overcast
8:53 AM 26.1 °F 16.8 °F 24.1 °F 92% 29.59 in 4.0 mi WSW 9.2 mph - N/A   Overcast
9:27 AM 28.4 °F 21.2 °F 26.6 °F 93% 29.49 in 8.0 mi SW 6.9 mph - N/A   Mostly Cloudy
9:53 AM 28.9 °F 23.9 °F 26.1 °F 89% 29.54 in 10.0 mi SW 4.6 mph - N/A   Overcast
10:53 AM 30.0 °F 22.4 °F 26.1 °F 85% 29.52 in 10.0 mi WSW 8.1 mph - N/A   Overcast
11:53 AM 30.9 °F 25.2 °F 28.0 °F 89% 29.49 in 10.0 mi SW 5.8 mph - N/A   Overcast
12:53 PM 33.1 °F 26.9 °F 28.9 °F 85% 29.46 in 9.0 mi WSW 6.9 mph - N/A   Overcast
1:53 PM 35.1 °F 32.2 °F 30.9 °F 85% 29.43 in 7.0 mi SW 3.5 mph - 0.00 in Snow Light Snow
2:40 PM 35.6 °F 26.6 °F 32.0 °F 87% 29.39 in 3.0 mi West 13.8 mph 32.2 mph 0.00 in Snow Light Snow
2:44 PM 35.6 °F 27.1 °F 33.8 °F 93% 29.39 in 2.5 mi West 12.7 mph 29.9 mph 0.00 in Snow Light Snow
2:53 PM 35.1 °F 25.9 °F 30.9 °F 85% 29.45 in 2.5 mi West 13.8 mph 23.0 mph 0.00 in Snow Light Snow
2:55 PM 35.6 °F 27.1 °F 30.2 °F 81% 29.39 in 1.2 mi WNW 12.7 mph 23.0 mph 0.00 in Snow Light Snow
3:05 PM 35.6 °F 27.5 °F 30.2 °F 81% 29.39 in 4.0 mi WNW 11.5 mph 21.9 mph 0.00 in Snow Light Snow
3:07 PM 35.6 °F 26.6 °F 30.2 °F 81% 29.39 in 8.0 mi WNW 13.8 mph 21.9 mph 0.00 in   Scattered Clouds
3:53 PM 37.9 °F 30.0 °F 27.0 °F 65% 29.42 in 10.0 mi West 12.7 mph 28.8 mph 0.00 in   Partly Cloudy
4:53 PM 35.1 °F 25.5 °F 24.1 °F 64% 29.47 in 10.0 mi WNW 15.0 mph 28.8 mph N/A   Scattered Clouds
5:00 PM 32.0 °F 22.5 °F 26.6 °F 80% 29.43 in 0.8 mi NW 12.7 mph 26.5 mph 0.00 in Snow Light Snow
5:03 PM 30.2 °F 20.2 °F 26.6 °F 86% 29.43 in 0.5 mi NW 12.7 mph 23.0 mph 0.00 in Snow Snow
5:14 PM 30.2 °F 20.8 °F 26.6 °F 86% 29.44 in 1.0 mi NW 11.5 mph 20.7 mph 0.00 in Snow Light Snow
5:21 PM 30.2 °F 20.8 °F 24.8 °F 80% 29.44 in 3.0 mi NW 11.5 mph 23.0 mph 0.00 in Snow Light Snow
5:33 PM 30.2 °F 19.8 °F 23.0 °F 75% 29.45 in 9.0 mi WNW 13.8 mph 24.2 mph 0.00 in   Overcast
5:53 PM 30.0 °F 21.7 °F 21.0 °F 69% 29.55 in 10.0 mi NW 9.2 mph 24.2 mph 0.00 in   Overcast
6:53 PM 27.0 °F 16.1 °F 16.0 °F 63% 29.60 in 10.0 mi NW 12.7 mph 23.0 mph N/A   Overcast
7:53 PM 26.1 °F 14.0 °F 15.1 °F 63% 29.64 in 10.0 mi WNW 15.0 mph 27.6 mph N/A   Partly Cloudy
8:53 PM 24.1 °F 12.5 °F 12.9 °F 62% 29.68 in 10.0 mi NW 12.7 mph 26.5 mph N/A   Mostly Cloudy
9:53 PM 23.0 °F 11.7 °F 10.0 °F 58% 29.70 in 10.0 mi NW 11.5 mph 27.6 mph N/A   Overcast
10:53 PM 21.9 °F 7.3 °F 10.9 °F 63% 29.74 in 10.0 mi West 18.4 mph 27.6 mph N/A   Partly Cloudy
11:42 PM 21.2 °F 9.5 °F 12.2 °F 68% 29.66 in 10.0 mi West 11.5 mph 26.5 mph N/A   Mostly Cloudy
11:53 PM 21.0 °F 8.6 °F 12.9 °F 71% 29.76 in 10.0 mi WNW 12.7 mph 26.5 mph N/A   Overcast